Regional Weather Roundup
Issued by NWS

Home | Current Version | Previous Version | Text Only | Print | Product List | Glossary Off
Versions: 1 2 3 4 5 6 7 8 9 10 11 12 13 14 15 16 17 18 19 20 21 22 23 24 25 26 27 28 29 30 31 32 33 34 35 36 37 38 39 40 41 42 43 44 45 46 47 48 49 50

000
ASUS43 KMPX 222010
RWRMN
WEATHER ROUNDUP FOR MINNESOTA
NATIONAL WEATHER SERVICE TWIN CITIES/CHANHASSEN MN
300 PM CDT MON MAY 22 2017


NOTE: "FAIR" INDICATES FEW OR NO CLOUDS BELOW 12,000 FEET WITH NO
SIGNIFICANT WEATHER AND/OR OBSTRUCTIONS TO VISIBILITY. N/A MEANS
CURRENT SKY AND/OR WEATHER CONDITIONS ARE NOT AVAILABLE.

MNZ060>063-068>070-222100-
   Twin Cities Metro

CITY           SKY/WX    TMP DP  RH WIND       PRES   REMARKS
TWIN CITIES    MOSUNNY   65  43  44 NW14      29.82F
ST PAUL        SUNNY     65  44  46 NW12G20   29.82F
CRYSTAL        SUNNY     63  39  41 NW18G24   29.81F
BLAINE         MOSUNNY   64  43  45 W14G21    29.82F
LAKEVILLE      MOSUNNY   63  48  59 W8G17     29.83S
EDEN PRAIRIE   SUNNY     65  43  44 NW13      29.81F
SOUTH ST PAUL  SUNNY     65  42  43 W10G16    29.82F
LAKE ELMO      FAIR      63  45  51 W12G17    29.83S
$$
MNZ001>005-007-008-013>017-022>024-027-028-222100-
   Northwest Minnesota

CITY           SKY/WX    TMP DP  RH WIND       PRES   REMARKS
BEMIDJI        CLOUDY    51  42  72 NW12G17   29.80S
HALLOCK        DRIZZLE   50  46  87 N13       29.85S
ROSEAU         LGT RAIN  48  43  81 N9        29.82S
WARROAD        LGT RAIN  48  45  87 N9        29.82R
THIEF RVR FALL LGT RAIN  47  42  83 N14       29.85R
CROOKSTON      CLOUDY    52  45  76 N17       29.86R
FOSSTON        CLOUDY    48  45  87 NW12G17   29.83S
DETROIT LAKES  MOSUNNY   54  43  66 NW16G22   29.84S
MOORHEAD       PTSUNNY   55  43  62 NW18      29.86S
PARK RAPIDS    LGT RAIN  53  39  59 NW18      29.81R
MAHNOMEN       CLOUDY    51  43  73 NW15      29.83S
$$
MNZ006-009>011-018-025>026-222100-
   North Central Minnesota

CITY           SKY/WX    TMP DP  RH WIND       PRES   REMARKS
BAUDETTE       CLOUDY    48  44  86 NW12      29.79R
FLAG ISLAND    DRIZZLE   46  43  87 N9        29.80R
INTL FALLS     LGT RAIN  49  44  83 NW7       29.77R
WASKISH        LGT RAIN  48  45  87 W7        29.80R
BIG FORK       RAIN      50  46  87 N3        29.78R
LONGVILLE      CLOUDY    54  43  66 W6        29.80R
GRAND RAPIDS   LGT RAIN  51  43  74 W6        29.80S
CRANE LAKE     LGT RAIN  46  45  93 NW6       29.78R
ORR            CLOUDY    52  43  71 W10       29.74R
COOK           CLOUDY    52  45  76 W9        29.76S
WALKER         DRIZZLE   47  44  88 W3        29.81R
$$
MNZ012-019>021-037-222100-
   Northeast Minnesota

CITY           SKY/WX    TMP DP  RH WIND       PRES   REMARKS
DULUTH         CLOUDY    51  46  83 W10       29.78R
ELY            PTSUNNY   48  45  87 NW6       29.75R
HIBBING        LGT RAIN  48  46  93 W5        29.77R
EVELETH        LGT RAIN  50  45  81 W6        29.78R
DULUTH HARBOR  DRIZZLE   50  46  87 W9        29.80R
TWO HARBORS    CLOUDY    55  46  71 NW8       29.76R
SILVER BAY     CLOUDY    52  45  76 W6        29.75R
GRAND MARAIS     N/A     42  40  92 W8        29.74R
G MARAIS ARPRT CLOUDY    48  41  76 W6        29.74R
$$
MNZ029>031-032-039>041-046>048-054>057-064-222100-
   West Central Minnesota

CITY           SKY/WX    TMP DP  RH WIND       PRES   REMARKS
FERGUS FALLS   PTSUNNY   57  43  58 NW18G24   29.83F
WHEATON        MOSUNNY   61  41  48 NW12      29.87S
MORRIS         MOSUNNY   63  46  55 NW15      29.84F
ALEXANDRIA     CLOUDY    56  42  59 W15       29.85S
ELBOW LAKE     CLOUDY    57  45  64 NW13      29.85S
WADENA         CLOUDY    52  43  71 NW14      29.82S
GLENWOOD       PTSUNNY   57  45  62 W14       29.85S
APPLETON       MOSUNNY   63  41  45 N8        29.85F
BENSON         MOSUNNY   63  41  45 N10       29.87S
ORTONVILLE     SUNNY     63  43  48 W7        29.86S
MADISON        PTSUNNY   63  45  51 N9        29.87S
WILLMAR        FAIR      61  46  59 NW10G17   29.86S
$$
MNZ033>034-036-042>043-049>051-058-059-222100-
   Central Minnesota

CITY           SKY/WX    TMP DP  RH WIND       PRES   REMARKS
ST CLOUD       MOSUNNY   60  44  55 W13       29.82F
SAUK CENTRE    MOCLDY    56  42  59 W12G20    29.84S
PAYNESVILLE    MOSUNNY   58  42  55 NW10      29.84F
AITKIN         PTSUNNY   54  43  66 SW6       29.78F
PINE RIVER     CLOUDY    52  43  71 W7        29.84S
BRAINERD       CLOUDY    54  41  61 NW7       29.81S
STAPLES        CLOUDY    52  39  62 NW12G20   29.82S
LONG PRAIRIE   CLOUDY    54  41  62 W7        29.84S
LITTLE FALLS   CLOUDY    55  41  58 W7        29.83R
LITCHFIELD     SUNNY     63  45  51 W9G16     29.85S
BUFFALO        MOSUNNY   63  44  50 W12G17    29.84S
MAPLE LAKE     MOSUNNY   62  46  55 W12G18    29.84F
HUTCHINSON     CLOUDY    63  48  58 W8        29.86R
$$
MNZ037-044-045-052-053-222100-
   East Central Minnesota

CITY           SKY/WX    TMP DP  RH WIND       PRES   REMARKS
PRINCETON      CLOUDY    61  45  55 W9G17     29.82F
MORA           PTSUNNY   55  39  54 W7        29.82F
CAMBRIDGE      PTSUNNY   61  45  55 W12       29.81S
RUSH CITY      CLOUDY    58  43  57 W9        29.83S
MOOSE LAKE     CLOUDY    57  41  54 W9        29.78F
HINCKLEY       MOCLDY    55  43  62 W6        29.81F
CLOQUET        CLOUDY    52  43  71 W6        29.79S
MCGREGOR       CLOUDY    55  43  62 W6        29.80S
$$
MNZ071>073-080-081-089-090-097-098-222100-
   Southwest Minnesota

CITY           SKY/WX    TMP DP  RH WIND       PRES   REMARKS
MONTEVIDEO     SUNNY     63  45  51 N6        29.86S
CANBY          PTSUNNY   61  46  59 N10       29.87S
MARSHALL       LGT RAIN  58  48  69 NW8       29.86S
REDWOOD FALLS  MOSUNNY   64  45  49 N9        29.84F
OLIVIA         MOSUNNY   63  46  55 NW9G16    29.84F
PIPESTONE      PTSUNNY   61  46  59 NW9       29.85R
WINDOM         SUNNY     64  43  45 N5        29.84F
WORTHINGTON    PTSUNNY   66  46  48 NW8       29.84F
JACKSON        CLOUDY    64  43  45 CALM      29.85S
TRACY          PTSUNNY   62  50  65 N7        29.85F
SLAYTON        CLOUDY    58  49  69 N6        29.85F
$$
MNZ065>067-074>077-082>085-091>093-222100-
   South Central Minnesota

CITY           SKY/WX    TMP DP  RH WIND       PRES   REMARKS
MANKATO        PTSUNNY   64  47  53 N7        29.85S
NEW ULM        MOSUNNY   64  46  52 N7        29.84F
ST JAMES       SUNNY     66  46  48 NW7       29.86S
FAIRMONT       SUNNY     66  44  45 N7        29.85S
GLENCOE        SUNNY     64  51  64 W13       29.83S
FARIBAULT      MOSUNNY   66  48  52 NW6       29.84F
OWATONNA       SUNNY     64  46  52 NW8       29.84F
WASECA         SUNNY     63  45  51 W8        29.86S
ALBERT LEA     SUNNY     66  43  42 CALM      29.84S
$$
MNZ078>079-086>088-094>096-222100-
   Southeast Minnesota

CITY           SKY/WX    TMP DP  RH WIND       PRES   REMARKS
ROCHESTER      MOSUNNY   66  48  52 W9        29.84F
RED WING       SUNNY     66  39  37 SW9G17    29.81F
STANTON        SUNNY     65  47  51 W7        29.82F
DODGE CENTER   MOSUNNY   64  45  48 W9        29.84F
WINONA         MOSUNNY   68  46  45 NW9       29.82F
AUSTIN         SUNNY     66  45  45 NW8       29.83F
PRESTON        MOSUNNY   64  48  55 W7        29.85S
$$
ABBREVIATIONS USED IN REMARKS
   TC - TEMPERATURES IN CELSIUS
  WCI - WIND CHILL INDEX
   HX - HEAT INDEX
  VSB - VISIBILITY
$$



USA.gov is the U.S. government's official web portal to all federal, state and local government web resources and services.